Regional Weather Roundup
Issued by NWS Cleveland, OH

Home | Current Version | Previous Version | Graphics & Text | Print | Product List | Glossary On
Versions: 1 2 3 4 5 6 7 8 9 10 11 12 13 14 15 16 17 18 19 20 21 22 23 24 25 26 27 28 29 30 31 32 33 34 35 36 37 38 39 40 41 42 43 44 45 46 47 48 49 50
000
ASUS41 KCLE 221710
RWRCLE
OHIO REGIONAL WEATHER ROUNDUP
NATIONAL WEATHER SERVICE CLEVELAND, OH
100 PM EDT TUE JUL 22 2014

NOTE: "FAIR" INDICATES FEW OR NO CLOUDS BELOW 12,000 FEET WITH NO
SIGNIFICANT WEATHER AND/OR OBSTRUCTIONS TO VISIBILITY.

OHZ001>008-015>018-024>027-034-035-043-044-221800-
   NORTHWEST OHIO

CITY           SKY/WX    TMP DP  RH WIND       PRES   REMARKS
DEFIANCE       SUNNY     87  65  47 S12       30.05F
FINDLAY        MOSUNNY   87  66  49 SW10      30.07F
TOLEDO EXPRESS SUNNY     86  63  45 SW10G17   30.05F
TOLEDO EXEC    MOSUNNY   87  64  46 SW12      30.06F
LIMA           SUNNY     86  66  51 SW12      30.08F HAZE
$$

OHZ009>014-019>023-028>033-038-089-221800-
   NORTHEAST OHIO

CITY           SKY/WX    TMP DP  RH WIND       PRES   REMARKS
CLE-HOPKINS    MOSUNNY   85  68  56 SW8       30.09F
CLE-LAKEFRONT  MOSUNNY   83  71  67 N5        30.05F
CUY CO. ARPT   NOT AVBL
LORAIN-ELYRIA  MOSUNNY   88  66  48 W10       30.08F HX  90
ASHTABULA      PTSUNNY   83  67  58 VRB5      30.10F
AKRON-CANTON   PTSUNNY   84  68  58 SW7       30.11F
WOOSTER        SUNNY     85  68  56 W8        30.11F
MANSFIELD      MOSUNNY   85  67  54 SW7       30.11F
YOUNGSTOWN     MOSUNNY   84  65  52 SW5       30.11F
$$

OHZ042-051>053-060>062-070>072-077>081-221800-
  SOUTHWEST OHIO

CITY           SKY/WX    TMP DP  RH WIND       PRES   REMARKS
CINC-COVINGTON MOSUNNY   87  65  47 SW7       30.10F
CINC-LUNKEN    MOSUNNY   87  70  56 VRB3      30.08F HX  92
HAMILTON       MOSUNNY   89  70  53 MISG      30.09F HX  94
DAYTON         MOSUNNY   87  68  52 W10       30.11F HX  90
WRIGHT-PAT AFB MOSUNNY   85  68  57 SW7       30.09F
DAYTON GENERAL MOSUNNY   85  68  56 SW6       30.09F
WILMINGTON     PTSUNNY   85  69  58 VRB5      30.10F
$$

OHZ036-037-039>041-045>050-054>059-063>069-073>076-082>088-221800-
  CENTRAL AND SOUTHEAST OHIO

CITY           SKY/WX    TMP DP  RH WIND       PRES   REMARKS
COLUMBUS       MOSUNNY   89  67  47 S8        30.09F HX  92
OSU AIRPORT    MOSUNNY   85  67  54 W6        30.09F
BOLTON FIELD   PTSUNNY   82  72  69 CALM      30.10F
RICKENBACK AFB MOSUNNY   87  63  44 S5        30.09F
NEWARK         MOSUNNY   85  69  58 VRB7      30.09F
MARION         MOSUNNY   85  67  54 W9G18     30.09F
LANCASTER      MOSUNNY   87  69  54 S3        30.10F HX  91
ZANESVILLE     MOSUNNY   84  68  58 S6        30.11F
NEW PHILLY     SUNNY     85  72  65 S6        30.10F HX  91
$$



USA.gov is the U.S. government's official web portal to all federal, state and local government web resources and services.